Goleta, CA

5:11 PM PST on February 10, 2016 (GMT -0800)
Santa Barbara Municipal

Weather History for KSBA - September, 2013

Change the Weather History Date:

Thursday, September 12, 2013

  Actual Average Record
Temperature  
Mean Temperature 65 °F 65 °F  
Max Temperature 76 °F 75 °F 88 °F (1971)
Min Temperature 54 °F 56 °F 47 °F (1985)
Degree Days  
Heating Degree Days 0 1  
Month to date heating degree days 0 12  
Since 1 July heating degree days 30 63  
Cooling Degree Days 0 2  
Month to date cooling degree days 54 24  
Year to date cooling degree days 252 151  
Growing Degree Days 13 (Base 50)    
Moisture  
Dew Point 57 °F    
Average Humidity 75    
Maximum Humidity 93    
Minimum Humidity 57    
Precipitation  
Precipitation 0.00 in 0.01 in T in (1974)
Month to date precipitation 0.00 0.04  
Year to date precipitation 3.42 12.24  
Since 1 July precipitation 0.07  
Sea Level Pressure  
Sea Level Pressure 29.88 in    
Wind  
Wind Speed 4 mph (SSW)    
Max Wind Speed 13 mph    
Max Gust Speed 28 mph    
Visibility 10 miles    
Events      
T = Trace of Precipitation, MM = Missing Value Source: NWS Daily Summary

Daily Weather History Graph

Daily Weather History Graph

Search for Another Location

Airport or City:

Trip Planner

Search our weather history database for the weather conditions in past years. The results will help you decide how hot, cold, wet, or windy it might be!

Date:

Astronomy

Sep. 12, 2013 Rise Set
Actual Time 6:40 AM PDT 7:09 PM PDT
Civil Twilight 6:15 AM PDT 7:35 PM PDT
Nautical Twilight 5:45 AM PDT 8:04 PM PDT
Astronomical Twilight 5:15 AM PDT 8:34 PM PDT
Moon 1:56 PM PDT (9/12) No Moon Set
Length of Visible Light 13h 19m
Length of Day
12h 29m
Waxing Crescent, 51% of the Moon is Illuminated
Sep 12
Waxing Crescent
Sep 19
Full
Sep 26
Last Quarter
Oct 4
New
Oct 11
First Quarter

Hourly Weather History & Observations

Time (PDT) Temp. Dew Point Humidity Pressure Visibility Wind Dir Wind Speed Gust Speed Precip Events Conditions
12:53 AM 60.1 °F 54.0 °F 80% 29.92 in 10.0 mi Calm Calm - N/A   Clear
1:53 AM 59.0 °F 54.0 °F 83% 29.92 in 10.0 mi NNE 3.5 mph - N/A   Clear
2:53 AM 59.0 °F 53.1 °F 81% 29.91 in 10.0 mi NE 3.5 mph - N/A   Clear
3:53 AM 55.9 °F 53.1 °F 90% 29.91 in 10.0 mi Calm Calm - N/A   Clear
4:53 AM 55.9 °F 52.0 °F 87% 29.90 in 10.0 mi Calm Calm - N/A   Clear
5:53 AM 57.0 °F 53.1 °F 87% 29.90 in 10.0 mi Calm Calm - N/A   Clear
6:53 AM 55.0 °F 52.0 °F 89% 29.91 in 8.0 mi Calm Calm - N/A   Clear
6:59 AM 53.6 °F 51.8 °F 94% 29.92 in 10.0 mi WNW 3.5 mph - N/A   Clear
7:53 AM 60.1 °F 55.0 °F 83% 29.93 in 10.0 mi Calm Calm - N/A   Clear
8:53 AM 66.0 °F 59.0 °F 78% 29.94 in 10.0 mi South 5.8 mph - N/A   Clear
9:53 AM 66.9 °F 60.1 °F 79% 29.94 in 10.0 mi SSE 5.8 mph - N/A   Clear
10:53 AM 68.0 °F 60.1 °F 76% 29.93 in 10.0 mi SSE 6.9 mph - N/A   Partly Cloudy
11:53 AM 70.0 °F 60.1 °F 71% 29.92 in 10.0 mi Variable 5.8 mph - N/A   Clear
12:53 PM 72.0 °F 59.0 °F 64% 29.91 in 10.0 mi WSW 5.8 mph - N/A   Clear
1:53 PM 73.0 °F 57.9 °F 59% 29.89 in 10.0 mi West 6.9 mph - N/A   Clear
2:53 PM 73.9 °F 57.9 °F 57% 29.87 in 10.0 mi West 6.9 mph - N/A   Clear
3:53 PM 73.9 °F 57.0 °F 55% 29.86 in 10.0 mi WSW 8.1 mph - N/A   Clear
4:53 PM 73.9 °F 57.0 °F 55% 29.84 in 10.0 mi West 6.9 mph - N/A   Clear
5:53 PM 72.0 °F 57.9 °F 61% 29.84 in 10.0 mi West 5.8 mph - N/A   Clear
6:53 PM 71.1 °F 59.0 °F 66% 29.83 in 10.0 mi SSW 3.5 mph - N/A   Clear
7:53 PM 66.0 °F 59.0 °F 78% 29.82 in 10.0 mi SE 4.6 mph - N/A   Clear
8:53 PM 66.0 °F 60.1 °F 81% 29.83 in 10.0 mi ESE 4.6 mph - N/A   Clear
9:53 PM 66.0 °F 60.1 °F 81% 29.83 in 10.0 mi ESE 5.8 mph - N/A   Clear
10:53 PM 64.9 °F 60.1 °F 84% 29.83 in 10.0 mi Calm Calm - N/A   Clear
11:53 PM 64.9 °F 60.1 °F 84% 29.82 in 10.0 mi Calm Calm - N/A   Clear